Location: Marcé
(47.5801°N, 0.3280°W)
Time: 22:40:44
(UTC+01:00)

Transit 2A - Pass Details

Date: 08 December 2021
Orbit: 591 x 967 km, 66.7° (Epoch: 23 January)

Event Time Altitude Azimuth Distance (km) Brightness Sun altitude
Rises 09:28:47 0° 321° (NW) 3,664 8.8 6.0°
Reaches altitude 10° 09:31:30 10° 315° (NW) 2,711 8.2 6.4°
Maximum altitude 09:37:24 41° 247° (WSW) 1,343 7.2 7.1°
Drops below altitude 10° 09:43:02 10° 180° (S) 2,580 9.6 7.7°
Sets 09:45:35 0° 173° (S) 3,469 10.4 8.0°
